Marianna, FL

10:03 PM CDT on July 20, 2017 (GMT -0500)
Marianna Municipal

Weather History for KMAI - March, 2014

Change the Weather History Date:

Thursday, March 6, 2014

  Actual Average Record
Temperature  
Mean Temperature 46 °F 58 °F  
Max Temperature 51 °F 71 °F 79 °F (2006)
Min Temperature 40 °F 46 °F 30 °F (2002)
Degree Days  
Heating Degree Days 19    
Month to date heating degree days 73  
Since 1 July heating degree days 1533  
Cooling Degree Days 0    
Month to date cooling degree days 0  
Year to date cooling degree days 9  
Moisture  
Dew Point 46 °F    
Average Humidity 95    
Maximum Humidity 100    
Minimum Humidity 89    
Precipitation  
Precipitation 0.84 in 0.16 in 0.84 in (2014)
Month to date precipitation 1.05 0.89  
Year to date precipitation 8.38 10.87  
Sea Level Pressure  
Sea Level Pressure 29.95 in    
Wind  
Wind Speed 11 mph (NE)    
Max Wind Speed 20 mph    
Max Gust Speed 25 mph    
Visibility 8 miles    
Events Rain    
T = Trace of Precipitation, MM = Missing Value Source: NWS Daily Summary

Daily Weather History Graph

Daily Weather History Graph

Search for Another Location

Airport or City:

Trip Planner

Search our weather history database for the weather conditions in past years. The results will help you decide how hot, cold, wet, or windy it might be!

Date:

Astronomy

Mar. 06, 2014 Rise Set
Actual Time 6:01 AM CST 5:42 PM CST
Civil Twilight 5:37 AM CST 6:06 PM CST
Nautical Twilight 5:09 AM CST 6:34 PM CST
Astronomical Twilight 4:41 AM CST 7:02 PM CST
Moon 9:31 AM CST (3/6) 11:24 PM CST (3/6)
Length of Visible Light 12h 29m
Length of Day
11h 41m
Waxing Crescent, 32% of the Moon is Illuminated
Mar 6
Waxing Crescent
Mar 8
First Quarter
Mar 16
Full
Mar 23
Last Quarter
Mar 30
New

Hourly Weather History & Observations

Time (CST) Temp. Windchill Dew Point Humidity Pressure Visibility Wind Dir Wind Speed Gust Speed Precip Events Conditions
12:35 AM 48.2 °F - 48.2 °F 100% 30.02 in 7.0 mi ENE 10.4 mph - 0.01 in Rain Rain
12:53 AM 48.9 °F - 48.9 °F 100% 30.01 in 6.0 mi ENE 8.1 mph - 0.04 in Rain Light Rain
1:53 AM 48.9 °F - 48.9 °F 100% 30.01 in 4.0 mi East 6.9 mph - 0.13 in Rain Rain
2:53 AM 48.0 °F - 48.0 °F 100% 29.97 in 4.0 mi ENE 6.9 mph - 0.26 in Rain Heavy Rain
3:19 AM 48.2 °F - 48.2 °F 100% 29.94 in 8.0 mi East 6.9 mph - 0.06 in Rain Light Rain
3:29 AM 48.2 °F - 48.2 °F 100% 29.94 in 10.0 mi East 6.9 mph - 0.07 in Rain Light Rain
3:45 AM 48.2 °F - 48.2 °F 100% 29.95 in 10.0 mi NNE 8.1 mph - 0.08 in Rain Light Rain
3:53 AM 48.0 °F - 48.0 °F 100% 29.95 in 10.0 mi NNE 9.2 mph - 0.08 in Rain Light Rain
4:53 AM 48.9 °F - 48.9 °F 100% 29.97 in 7.0 mi NE 6.9 mph - 0.11 in Rain Rain
5:53 AM 48.9 °F - 48.9 °F 100% 30.01 in 7.0 mi ENE 3.5 mph - 0.13 in Rain Rain
6:23 AM 48.2 °F - 48.2 °F 100% 30.00 in 10.0 mi NE 8.1 mph - 0.02 in Rain Light Rain
6:53 AM 48.9 °F - 48.9 °F 100% 29.99 in 10.0 mi East 8.1 mph - 0.03 in Rain Light Rain
7:14 AM 48.2 °F - 48.2 °F 100% 29.99 in 8.0 mi ENE 9.2 mph - 0.01 in Rain Rain
7:53 AM 50.0 °F - 50.0 °F 100% 29.97 in 10.0 mi ENE 12.7 mph - 0.05 in Rain Light Rain
8:01 AM 50.0 °F - 50.0 °F 100% 29.96 in 10.0 mi ENE 10.4 mph - 0.00 in Rain Light Rain
8:53 AM 50.0 °F - 48.9 °F 96% 29.97 in 10.0 mi East 9.2 mph 18.4 mph 0.00 in   Overcast
9:53 AM 50.0 °F - 50.0 °F 100% 29.93 in 10.0 mi East 12.7 mph - 0.00 in   Overcast
10:53 AM 50.0 °F - 50.0 °F 100% 29.92 in 10.0 mi ENE 16.1 mph - N/A   Overcast
11:53 AM 51.1 °F - 48.9 °F 92% 29.93 in 10.0 mi NNE 10.4 mph - 0.01 in   Overcast
12:53 PM 48.9 °F - 48.0 °F 97% 29.92 in 10.0 mi NNE 11.5 mph - N/A   Overcast
1:53 PM 48.9 °F - 48.0 °F 97% 29.91 in 2.0 mi NNE 12.7 mph 20.7 mph 0.00 in Rain Light Rain
2:00 PM 48.2 °F - 48.2 °F 100% 29.91 in 1.5 mi NNE 11.5 mph 20.7 mph 0.00 in Rain Light Rain
2:19 PM 46.4 °F 40.7 °F 46.4 °F 100% 29.91 in 2.5 mi NNE 12.7 mph - 0.00 in Rain Light Rain
2:31 PM 46.4 °F 40.1 °F 46.4 °F 100% 29.91 in 4.0 mi NNE 15.0 mph 23.0 mph 0.00 in Rain Light Rain
2:53 PM 46.0 °F 39.3 °F 46.0 °F 100% 29.91 in 4.0 mi NE 16.1 mph - 0.00 in Rain Light Rain
3:53 PM 45.0 °F 38.9 °F 45.0 °F 100% 29.91 in 10.0 mi NE 12.7 mph - 0.00 in   Overcast
4:53 PM 44.1 °F 38.1 °F 42.1 °F 93% 29.90 in 10.0 mi NNE 11.5 mph - N/A   Overcast
5:53 PM 43.0 °F 36.4 °F 39.9 °F 89% 29.91 in 10.0 mi NE 12.7 mph - N/A   Overcast
6:53 PM 42.1 °F 36.1 °F 39.0 °F 89% 29.92 in 10.0 mi NNE 10.4 mph - N/A   Overcast
7:53 PM 41.0 °F 33.9 °F 39.0 °F 93% 29.92 in 10.0 mi NNE 12.7 mph - N/A   Overcast
8:53 PM 39.9 °F 32.9 °F 39.0 °F 97% 29.94 in 10.0 mi NNE 11.5 mph - N/A   Overcast
9:18 PM 39.2 °F 32.0 °F 37.4 °F 93% 29.93 in 10.0 mi NNE 11.5 mph - N/A   Overcast
9:53 PM 39.9 °F 32.5 °F 37.9 °F 93% 29.94 in 10.0 mi NE 12.7 mph - N/A   Overcast
10:53 PM 39.9 °F 33.4 °F 37.9 °F 93% 29.92 in 10.0 mi NE 10.4 mph - N/A   Overcast
11:53 PM 39.9 °F 35.1 °F 37.9 °F 93% 29.93 in 10.0 mi North 6.9 mph - N/A   Overcast